{"data":{"norad_id":55743,"intl_designator":"2023-028C","name":"STARLINK-5602","alt_names":[],"object_type":"PAYLOAD","status":"ACTIVE","operator":null,"country":"US","launch_date":"2023-03-03","launch_site_code":"AFWTR","launch_vehicle":null,"mission":null,"orbit_class":"UNKNOWN","rcs_meters":null,"size_class":null,"mass_kg":null,"dimensions":null,"purposes":["comms"],"wikipedia_slug":null,"has_3d_model":false,"image_url":null,"decayed_at":null,"tle_current":{"epoch":"2026-05-25T04:20:10.370976Z","epoch_age_seconds":53423,"freshness":"FRESH","line1":"1 55743U 23028C   26145.18067559  .00000972  00000+0  89223-4 0  9993","line2":"2 55743  70.0008  51.7654 0003013 270.6195  89.4619 14.98323219177493","mean_motion":14.98323219,"eccentricity":0.0003013,"inclination_deg":70.0008,"raan_deg":51.7654,"arg_perigee_deg":270.6195,"mean_anomaly_deg":89.4619,"bstar":8.9223e-5,"rev_number":17749,"period_min":96.107434079616,"perigee_km":569.9827612704,"apogee_km":574.17096014287,"semimajor_km":6950.2138607066,"source":"CELESTRAK","updated_at":"2026-05-25T13:38:17.878285Z"}}}